Hourly Data Report for October 16, 2020

OTTAWA INTL A
ONTARIO
Current Station Operator: NAVCAN

45°19'00.000" N
75°40'00.000" W
114.90 m
6106001
71628
YOW

Download Data

Hourly Data (October 2020)
Hourly Data Report for October 16, 2020
TIME Temp Definition
°C
Dew Point Definition
°C
Rel Hum Definition
%
Wind Dir Definition
10's deg

Wind Spd Definition
km/h
Visibility Definition
km
Stn Press Definition
kPa
Hmdx Definition


Wind Chill Definition


Weather Definition


00:00 9.5 8.9 96 20 9 16.1 99.99     Rain
01:00 9.5 9.0 97 19 9 12.9 100.02     Rain
02:00 9.2 8.7 96 21 9 8.1 100.04     Rain,Fog
03:00 8.8 8.1 95 19 3 16.1 100.05     Rain
04:00 9.4 9.0 98 18 9 9.7 100.09     Rain
05:00 9.3 9.0 98 18 7 12.9 100.15     Rain
06:00 9.0 8.7 98 17 9 12.9 100.19     Rain
07:00 8.8 8.3 97 20 12 16.1 100.21     Rain
08:00 8.7 8.1 96 19 14 24.1 100.31     LegendNANA
09:00 9.1 8.4 96 21 11 24.1 100.36     LegendNANA
10:00 9.6 8.1 90 22 18 24.1 100.43     Cloudy
11:00 9.6 7.1 84 22 17 24.1 100.43     LegendNANA
12:00 10.1 5.4 72 24 20 24.1 100.42     LegendNANA
13:00 9.9 5.5 74 22 13 24.1 100.42     Mostly Cloudy
14:00 9.2 5.1 75 29 17 24.1 100.44     LegendNANA
15:00 9.2 4.6 73 29 14 24.1 100.46     LegendNANA
16:00 7.4 4.8 84 23 10 24.1 100.53     Rain
17:00 7.6 5.0 84 28 7 24.1 100.59     LegendNANA
18:00 6.2 4.3 88 22 7 24.1 100.64     LegendNANA
19:00 5.8 4.3 90 19 6 24.1 100.70     Mostly Cloudy
20:00 4.1 3.5 96 16 8 24.1 100.77     LegendNANA
21:00 4.7 3.0 89 17 6 24.1 100.81     LegendNANA
22:00 3.4 2.5 94 23 7 24.1 100.87     Clear
23:00 2.9 2.0 94 25 8 24.1 100.87     LegendNANA

Notes on Data Quality.

Legend

  • E = Estimated
  • M = Missing
  • NA = Not Available*
  • [empty] = Indicates an unobserved value
Date modified: